Погода в Талдыкино

Россия / Орловская область     52°28′47″N   35°00′29″E
темп.,
°C
ветер,
м/с
пор.,
м/с
влажн.,
%
обл.,
%
осадки,
мм/ч
давл.,
гПа
погр.,
м
28 ноября, вс
вс2800:00+5ююз6139665 0.0 1002352
03:00+5юз499652 0.0 1003338
06:00+2юз36941 0.0 1004133
09:00+1юз36925 0.0 1006118
12:00+4зюз357460 0.0 1007234
15:00+5ююв237497 0.0 100882
18:00+3юв3687100 0.0 100896
21:00+3юв51195100 0.0 1007233
29 ноября, пн
пн2900:00+3юв51296100 0.0 1006248
03:00+4юв51096100 0.0 1004209
06:00+4вюв4996100 0.0 1002188
09:00+5в41098100 0.6 999262
12:00+5юв3799100 0.0 997275
15:00+6ююв4999100 0.0 995290
18:00+8юв61397100 0.1 991459
21:00+7вюв51194100 0.7 986324
30 ноября, вт
вт3000:00+7всв3699100 8.9 979160
03:00+7зюз61298100 17.0 978521
06:00+2зюз121995100 1.8 981871
09:000зюз122097100 7.9 9861038
12:00+1зюз121885100 0.5 9891087
15:00+1зюз101683100 0.6 9901147
18:000юз91490100 0.1 9911055
21:00−2юз8158799 0.3 992815
1 декабря, ср
ср100:00−2зюз91487100 0.1 991956
03:00−2з81395100 0.6 9931054
06:00−3з91494100 1.1 9931081
09:00−3з71294100 1.8 996995
12:00−3з81184100 0.3 9981017
15:00−3з7118376 0.4 999896
18:00−4з6128980 0.0 1001566
21:00−5з5119259 0.0 1003459
2 декабря, чт
чт200:00−6з399596 0.0 1004299
03:00−6юз369664 0.0 1005153
06:00−4ююз41189100 0.0 1005383
09:00−2ю71496100 0.1 1003616
12:000ююз81597100 1.7 1002732
15:00+1юз71598100 2.3 1002595
18:00+1юз61390100 0.0 1003421
21:00+1ююз6149197 0.0 1004418